BAW7D EGLL-KLAX

Flight info

Callsign BAW7D
Flight time N/A
Altitude 38000
Route ULTIB T420 TNT UL28 PENIL DCT DEJEM DCT OZRAT DCT WETFI DCT REVNU DCT PIKIL/M084F360 DCT 5630N02000W 5730N03000W 5830N04000W 5930N05000W DCT URTAK/N0487F380 DCT LAKES DCT 57N070W 55N080W 5230N09000W DCT KP18A DCT KU06W DCT KD87U/N0475F400 DCT KU54O DCT NORRA J107 BLD DCT HAKMN ANJLL4
Aircraft A388/J-SADE2E3FGHIJ3J4J5M1RWXY/LB1D1

Departure

Time N/A
Airport London Heathrow Airport (EGLL)

Arrival

Time 2026-05-06 11:29
Airport Los Angeles International Airport (KLAX)
Time Latitude Longitude Altitude Speed Heading
2026-05-06 10:47 35.43025 -115.18102 37990 ft 484 kts 229°
2026-05-06 10:47 35.40699 -115.21155 38000 ft 484 kts 229°
2026-05-06 10:48 35.36091 -115.27167 37999 ft 483 kts 229°
2026-05-06 10:48 35.31473 -115.33165 37999 ft 484 kts 229°
2026-05-06 10:49 35.26844 -115.39175 38009 ft 486 kts 229°
2026-05-06 10:49 35.22614 -115.44655 38029 ft 487 kts 229°
2026-05-06 10:50 35.17999 -115.50630 38040 ft 486 kts 229°
2026-05-06 10:50 35.13354 -115.56630 38038 ft 486 kts 229°
2026-05-06 10:51 35.08910 -115.62350 38048 ft 486 kts 229°
2026-05-06 10:51 35.04245 -115.68301 38058 ft 485 kts 228°
2026-05-06 10:52 34.99583 -115.74246 38062 ft 484 kts 228°
2026-05-06 10:52 34.94930 -115.80182 38076 ft 484 kts 228°
2026-05-06 10:53 34.90274 -115.86104 38079 ft 484 kts 228°
2026-05-06 10:53 34.85619 -115.92010 37940 ft 482 kts 228°
2026-05-06 10:53 34.83306 -115.94941 37700 ft 478 kts 228°
2026-05-06 10:54 34.81004 -115.97857 37450 ft 478 kts 228°
2026-05-06 10:54 34.78694 -116.00780 37207 ft 479 kts 228°
2026-05-06 10:54 34.76386 -116.03706 36956 ft 480 kts 228°
2026-05-06 10:54 34.74068 -116.06662 36708 ft 485 kts 228°
2026-05-06 10:55 34.71729 -116.09653 36461 ft 489 kts 228°
2026-05-06 10:55 34.69592 -116.12377 36236 ft 490 kts 227°
2026-05-06 10:55 34.67227 -116.15386 35993 ft 493 kts 227°
2026-05-06 10:55 34.64851 -116.18405 35740 ft 499 kts 227°
2026-05-06 10:56 34.62441 -116.21463 35482 ft 503 kts 227°
2026-05-06 10:56 34.60018 -116.24536 35238 ft 503 kts 227°
2026-05-06 10:56 34.57596 -116.27605 34996 ft 504 kts 227°
2026-05-06 10:56 34.55172 -116.30676 34527 ft 504 kts 227°
2026-05-06 10:57 34.52741 -116.33749 33877 ft 503 kts 227°
2026-05-06 10:57 34.50358 -116.36760 33277 ft 499 kts 227°
2026-05-06 10:57 34.47961 -116.39785 32665 ft 496 kts 226°
2026-05-06 10:57 34.45999 -116.42260 32151 ft 493 kts 226°
2026-05-06 10:58 34.43647 -116.45272 31502 ft 491 kts 229°
2026-05-06 10:58 34.41738 -116.48235 30917 ft 489 kts 236°
2026-05-06 10:58 34.39990 -116.51744 30289 ft 486 kts 244°
2026-05-06 10:58 34.38500 -116.55410 29644 ft 484 kts 245°
2026-05-06 10:59 34.37012 -116.59054 29006 ft 483 kts 245°
2026-05-06 10:59 34.35515 -116.62692 28361 ft 482 kts 245°
2026-05-06 10:59 34.34156 -116.65986 27792 ft 480 kts 245°
2026-05-06 10:59 34.32676 -116.69573 27435 ft 471 kts 245°
2026-05-06 11:00 34.31246 -116.73110 26898 ft 467 kts 246°
2026-05-06 11:00 34.29839 -116.76629 26287 ft 464 kts 246°
2026-05-06 11:00 34.28434 -116.80138 25688 ft 461 kts 246°
2026-05-06 11:00 34.27040 -116.83610 25095 ft 458 kts 246°
2026-05-06 11:01 34.25654 -116.87052 24598 ft 452 kts 246°
2026-05-06 11:01 34.24549 -116.89788 24395 ft 442 kts 246°
2026-05-06 11:01 34.23196 -116.93134 23752 ft 441 kts 246°
2026-05-06 11:01 34.21854 -116.96452 23228 ft 437 kts 246°
2026-05-06 11:02 34.20679 -116.99795 22737 ft 429 kts 254°
2026-05-06 11:02 34.19781 -117.03197 22311 ft 421 kts 255°
2026-05-06 11:02 34.18885 -117.06553 21676 ft 419 kts 255°
2026-05-06 11:02 34.18068 -117.09585 21123 ft 416 kts 255°
2026-05-06 11:03 34.17172 -117.12890 20606 ft 412 kts 255°
2026-05-06 11:03 34.16286 -117.16144 20266 ft 403 kts 254°
2026-05-06 11:03 34.15418 -117.19299 20056 ft 391 kts 254°
2026-05-06 11:03 34.14851 -117.21355 19653 ft 391 kts 254°
2026-05-06 11:04 34.13994 -117.24463 19182 ft 387 kts 254°
2026-05-06 11:04 34.13027 -117.27976 18647 ft 382 kts 254°
2026-05-06 11:04 34.12191 -117.31005 18216 ft 378 kts 254°
2026-05-06 11:04 34.11370 -117.33976 17903 ft 370 kts 254°
2026-05-06 11:05 34.10558 -117.36913 17436 ft 368 kts 254°
2026-05-06 11:05 34.09777 -117.39839 16965 ft 364 kts 255°
2026-05-06 11:05 34.09058 -117.42739 16523 ft 362 kts 256°
2026-05-06 11:05 34.08346 -117.45651 16058 ft 359 kts 256°
2026-05-06 11:06 34.07670 -117.48398 15640 ft 356 kts 255°
2026-05-06 11:06 34.07264 -117.50169 15349 ft 355 kts 260°
2026-05-06 11:06 34.06851 -117.53072 14894 ft 350 kts 263°
2026-05-06 11:06 34.06463 -117.55961 14438 ft 348 kts 263°
2026-05-06 11:07 34.06069 -117.58807 13976 ft 344 kts 263°
2026-05-06 11:07 34.05665 -117.61655 13527 ft 342 kts 262°
2026-05-06 11:07 34.05271 -117.64472 13003 ft 340 kts 262°
2026-05-06 11:07 34.04881 -117.67267 12568 ft 337 kts 262°
2026-05-06 11:08 34.04491 -117.70041 12124 ft 334 kts 262°
2026-05-06 11:08 34.04103 -117.72797 11661 ft 332 kts 262°
2026-05-06 11:08 34.03751 -117.75288 11262 ft 329 kts 262°
2026-05-06 11:08 34.03368 -117.77988 10857 ft 325 kts 262°
2026-05-06 11:09 34.02992 -117.80659 10387 ft 322 kts 262°
2026-05-06 11:09 34.02620 -117.83288 10132 ft 312 kts 261°
2026-05-06 11:09 34.02260 -117.85795 9885 ft 297 kts 261°
2026-05-06 11:09 34.01912 -117.88225 9396 ft 292 kts 261°
2026-05-06 11:10 34.01570 -117.90621 8971 ft 288 kts 261°
2026-05-06 11:10 34.01232 -117.92994 8590 ft 286 kts 261°
2026-05-06 11:10 34.00896 -117.95343 8219 ft 283 kts 261°
2026-05-06 11:10 34.00567 -117.97638 8070 ft 273 kts 261°
2026-05-06 11:11 34.00246 -117.99873 7754 ft 270 kts 261°
2026-05-06 11:11 33.99928 -118.02084 7421 ft 268 kts 261°
2026-05-06 11:11 33.99611 -118.04290 7088 ft 266 kts 261°
2026-05-06 11:11 33.99299 -118.06449 6753 ft 263 kts 261°
2026-05-06 11:12 33.98985 -118.08620 6588 ft 255 kts 261°
2026-05-06 11:12 33.98685 -118.10701 6353 ft 250 kts 261°
2026-05-06 11:12 33.98389 -118.12754 6037 ft 249 kts 261°
2026-05-06 11:12 33.98099 -118.14777 5614 ft 248 kts 261°
2026-05-06 11:13 33.97806 -118.16810 5179 ft 246 kts 261°
2026-05-06 11:13 33.97509 -118.18860 4726 ft 244 kts 261°
2026-05-06 11:13 33.97208 -118.20841 4267 ft 242 kts 255°
2026-05-06 11:13 33.96497 -118.22676 3944 ft 242 kts 241°
2026-05-06 11:14 33.95676 -118.24440 3992 ft 243 kts 241°
2026-05-06 11:14 33.94855 -118.26220 3999 ft 244 kts 241°
2026-05-06 11:14 33.94175 -118.27698 3998 ft 244 kts 241°
2026-05-06 11:14 33.93353 -118.29482 4002 ft 243 kts 242°
2026-05-06 11:15 33.92533 -118.31263 4007 ft 243 kts 241°
2026-05-06 11:15 33.91712 -118.33047 3998 ft 244 kts 241°
2026-05-06 11:15 33.90890 -118.34833 4005 ft 244 kts 241°
2026-05-06 11:15 33.90069 -118.36617 4010 ft 244 kts 241°
2026-05-06 11:16 33.89249 -118.38399 3995 ft 243 kts 241°
2026-05-06 11:16 33.88428 -118.40181 3998 ft 244 kts 241°
2026-05-06 11:16 33.87606 -118.41963 4005 ft 243 kts 241°
2026-05-06 11:16 33.86785 -118.43745 3998 ft 244 kts 241°
2026-05-06 11:17 33.85977 -118.45539 4001 ft 243 kts 244°
2026-05-06 11:17 33.85309 -118.47408 4001 ft 243 kts 248°
2026-05-06 11:17 33.84677 -118.49298 3993 ft 244 kts 248°
2026-05-06 11:17 33.84043 -118.51186 3997 ft 243 kts 249°
2026-05-06 11:18 33.83411 -118.53072 4004 ft 243 kts 248°
2026-05-06 11:18 33.82777 -118.54960 3996 ft 243 kts 248°
2026-05-06 11:18 33.82142 -118.56849 3995 ft 244 kts 248°
2026-05-06 11:18 33.81509 -118.58739 4008 ft 244 kts 248°
2026-05-06 11:19 33.80878 -118.60623 3997 ft 244 kts 249°
2026-05-06 11:19 33.80241 -118.62513 3997 ft 244 kts 248°
2026-05-06 11:19 33.79606 -118.64405 4002 ft 244 kts 248°
2026-05-06 11:19 33.78971 -118.66290 4001 ft 243 kts 249°
2026-05-06 11:20 33.78333 -118.68180 3994 ft 244 kts 248°
2026-05-06 11:20 33.77748 -118.70089 4000 ft 243 kts 256°
2026-05-06 11:20 33.77658 -118.72069 3994 ft 234 kts 283°
2026-05-06 11:20 33.78358 -118.73756 4010 ft 230 kts 313°
2026-05-06 11:21 33.79701 -118.74771 4003 ft 231 kts 345°
2026-05-06 11:21 33.81293 -118.74928 4010 ft 231 kts 359°
2026-05-06 11:21 33.82888 -118.74955 3996 ft 224 kts 358°
2026-05-06 11:21 33.84408 -118.75006 4001 ft 215 kts 358°
2026-05-06 11:22 33.85878 -118.75063 4002 ft 211 kts 358°
2026-05-06 11:22 33.87346 -118.75121 4000 ft 211 kts 358°
2026-05-06 11:22 33.88815 -118.75179 4002 ft 211 kts 358°
2026-05-06 11:22 33.90266 -118.75016 3994 ft 211 kts 22°
2026-05-06 11:23 33.91340 -118.73860 4001 ft 213 kts 63°
2026-05-06 11:23 33.91748 -118.72147 3996 ft 215 kts 80°
2026-05-06 11:23 33.91927 -118.70364 3996 ft 214 kts 84°
2026-05-06 11:23 33.92099 -118.68593 3994 ft 210 kts 82°
2026-05-06 11:24 33.92278 -118.66898 3973 ft 199 kts 83°
2026-05-06 11:24 33.92442 -118.65270 3772 ft 193 kts 82°
2026-05-06 11:24 33.92606 -118.63690 3504 ft 189 kts 82°
2026-05-06 11:24 33.92766 -118.62126 3236 ft 189 kts 82°
2026-05-06 11:25 33.92929 -118.60558 2969 ft 188 kts 83°
2026-05-06 11:25 33.93082 -118.59034 2722 ft 177 kts 82°
2026-05-06 11:25 33.93231 -118.57612 2485 ft 168 kts 82°
2026-05-06 11:25 33.93368 -118.56245 2263 ft 159 kts 82°
2026-05-06 11:26 33.93504 -118.54948 2055 ft 154 kts 82°
2026-05-06 11:26 33.93630 -118.53699 1854 ft 147 kts 82°
2026-05-06 11:26 33.93754 -118.52492 1662 ft 145 kts 82°
2026-05-06 11:26 33.93876 -118.51307 1473 ft 141 kts 82°
2026-05-06 11:27 33.93995 -118.50144 1288 ft 139 kts 82°
2026-05-06 11:27 33.94114 -118.48987 1098 ft 139 kts 82°
2026-05-06 11:27 33.94232 -118.47835 923 ft 138 kts 82°
2026-05-06 11:27 33.94335 -118.46834 755 ft 138 kts 82°
2026-05-06 11:28 33.94437 -118.45746 576 ft 132 kts 82°
2026-05-06 11:28 33.94567 -118.44645 346 ft 133 kts 84°
2026-05-06 11:28 33.94658 -118.43600 171 ft 134 kts 82°
2026-05-06 11:28 33.94776 -118.42536 105 ft 126 kts 80°
2026-05-06 11:29 33.94859 -118.41701 101 ft 81 kts 83°
2026-05-06 11:29 33.94920 -118.41149 104 ft 55 kts 83°
2026-05-06 11:29 33.94957 -118.40767 104 ft 27 kts 83°
2026-05-06 11:29 33.94942 -118.40660 105 ft 12 kts 136°
2026-05-06 11:30 33.94883 -118.40654 101 ft 9 kts 223°
2026-05-06 11:30 33.94854 -118.40726 99 ft 11 kts 258°
2026-05-06 11:30 33.94839 -118.40826 99 ft 13 kts 265°
2026-05-06 11:30 33.94831 -118.40939 103 ft 14 kts 265°
2026-05-06 11:31 33.94822 -118.41065 100 ft 16 kts 264°
2026-05-06 11:31 33.94807 -118.41171 103 ft 12 kts 258°
2026-05-06 11:31 33.94792 -118.41258 99 ft 10 kts 246°
2026-05-06 11:31 33.94746 -118.41292 102 ft 9 kts 174°
2026-05-06 11:32 33.94682 -118.41282 99 ft 10 kts 172°
2026-05-06 11:32 33.94613 -118.41272 101 ft 9 kts 174°
2026-05-06 11:32 33.94558 -118.41263 100 ft 8 kts 158°
2026-05-06 11:32 33.94531 -118.41218 101 ft 7 kts 102°
2026-05-06 11:33 33.94526 -118.41184 100 ft 2 kts 99°
2026-05-06 11:33 33.94525 -118.41176 98 ft 0 kts 98°
2026-05-06 11:33 33.94523 -118.41166 98 ft 1 kts 98°